Location: Shepherdstown, WV
(39.4326°N, 77.8042°W)
Time: 14:07:21
(UTC-04:00)

Vanguard 1 Rocket - Pass Details

Date: 07 August 2021
Orbit: 650 x 4226 km, 34.3° (Epoch: 20 September)

Event Time Altitude Azimuth Distance (km) Brightness Sun altitude
Rises 07:11:50 0° 211° (SSW) 8,146 11.8 9.3°
Reaches altitude 10° 07:17:58 10° 204° (SSW) 7,325 11.7 10.4°
Maximum altitude 07:40:35 40° 145° (SE) 5,012 11.6 14.7°
Drops below altitude 10° 07:57:56 10° 85° (E) 5,795 14.1 18.0°
Sets 08:01:57 0° 78° (ENE) 6,390 13.4 18.8°
